User: anonymous   Login
Location: Albany
(35.0000°S, 118.0000°E)
Time: 23:23:09
(UTC-05:00)
Language:

Centaur D-1AR AC-48 - Orbit

View from above orbital plane
View from above orbital plane
View from above satellite
View from above satellite

Ground track
Ground track

The orbit data is extracted from the following two-line orbital elements,

1 10779U 78035B   14354.32651081 -.00000059  00000-0 -10263-2 0  9912
2 10779 021.8314 024.8602 7174154 172.3751 350.5529 02.22637546298412
Epoch (UTC): 20 December 2014 07:50:10
Eccentricity: 0.7174154
inclination: 21.8314°
perigee height: 623 km
apogee height: 36169 km
right ascension of ascending node: 24.8602°
argument of perigee: 172.3751°
revolutions per day: 2.22637546
mean anomaly at epoch: 350.5529°
orbit number at epoch: 29841

The dashed part of the orbit path shows where the satellite is in the earth's shadow,  

DLR